This is the latest recevied weather packets stored in our database for station/object W0BJ. If no packets are shown the sender has not sent any weather packets the latest 10 day(s).
| Time | Temp. | Humidity | Pressure | Rain* | Wind** | Luminosity | Snow |
|---|---|---|---|---|---|---|---|
| 1777740798 | 13.33° C | 41% | 1022.9 hPa | 0 mm | - | - | - |
| 1777740744 | 13.33° C | 41% | 1022.8 hPa | 0 mm | - | - | - |
| 1777740144 | 13.89° C | 40% | 1022.8 hPa | 0 mm | - | - | - |
| 1777739898 | 13.89° C | 39% | 1022.8 hPa | 0 mm | - | - | - |
| 1777739543 | 13.89° C | 43% | 1022.6 hPa | 0 mm | - | - | - |
| 1777738999 | 14.44° C | 43% | 1022.8 hPa | 0 mm | - | - | - |
| 1777738945 | 14.44° C | 44% | 1022.7 hPa | 0 mm | - | - | - |
| 1777738344 | 13.89° C | 44% | 1022.8 hPa | 0 mm | - | - | - |
| 1777738098 | 13.89° C | 45% | 1022.7 hPa | 0 mm | - | - | - |
| 1777737744 | 13.89° C | 44% | 1022.5 hPa | 0 mm | - | - | - |
| 1777737197 | 13.89° C | 46% | 1022.6 hPa | 0 mm | - | - | - |
| 1777737143 | 13.89° C | 46% | 1022.5 hPa | 0 mm | - | - | - |
| 1777736544 | 13.89° C | 49% | 1022.3 hPa | 0 mm | - | - | - |
| 1777736298 | 13.89° C | 50% | 1022.6 hPa | 0 mm | - | - | - |
| 1777735944 | 13.89° C | 50% | 1022.5 hPa | 0 mm | - | - | - |
| 1777735398 | 14.44° C | 52% | 1022.5 hPa | 0 mm | - | - | - |
| 1777735343 | 14.44° C | 52% | 1022.5 hPa | 0 mm | - | - | - |
| 1777734745 | 14.44° C | 54% | 1022.5 hPa | 0 mm | - | - | - |
| 1777734499 | 14.44° C | 55% | 1022.5 hPa | 0 mm | - | - | - |
| 1777734143 | 14.44° C | 59% | 1022.4 hPa | 0 mm | - | - | - |
| 1777733599 | 13.89° C | 60% | 1022.3 hPa | 0 mm | - | - | - |
| 1777733545 | 13.89° C | 61% | 1022.3 hPa | 0 mm | - | - | - |
| 1777732944 | 13.89° C | 61% | 1022.1 hPa | 0 mm | - | - | - |
| 1777732698 | 13.33° C | 64% | 1022.2 hPa | 0 mm | - | - | - |
| 1777732343 | 13.33° C | 64% | 1022.2 hPa | 0 mm | - | - | - |
* Rain latest hour (hover to see other rain measurements)
** Current wind speed in m/s (hover to see current wind gust speed)